| time (UTC) | temp C | wind direction | speed KPH | gust KPH | rain 1hr cm | rain 24hr cm | rain mn cm | humidity % | barometer mb |
| 20260903130403 | 22 | 268 | 11.3 | 24.1 | 0.00 | 0.03 | 0.03 | 76 | 1014.1 |
| 20260903125403 | 22 | 258 | 11.3 | 24.1 | 0.00 | 0.15 | 0.03 | 77 | 1014.1 |
| 20260903124404 | 22 | 226 | 12.9 | 30.6 | 0.00 | 0.15 | 0.03 | 78 | 1013.9 |
| 20260903123403 | 22 | 297 | 14.5 | 30.6 | 0.00 | 0.15 | 0.03 | 78 | 1013.9 |
| 20260903122403 | 21 | 246 | 9.7 | 24.1 | 0.00 | 0.15 | 0.03 | 80 | 1013.9 |
| 20260903121403 | 21 | 239 | 12.9 | 22.5 | 0.00 | 0.15 | 0.03 | 80 | 1013.8 |
| 20260903120404 | 21 | 261 | 9.7 | 20.9 | 0.00 | 0.15 | 0.03 | 82 | 1013.8 |
| 20260903115405 | 21 | 248 | 12.9 | 30.6 | 0.00 | 0.15 | 0.03 | 82 | 1013.8 |
| 20260903114403 | 21 | 234 | 8.0 | 20.9 | 0.00 | 0.15 | 0.03 | 84 | 1013.7 |
| 20260903113403 | 21 | 264 | 11.3 | 22.5 | 0.03 | 0.15 | 0.03 | 85 | 1013.5 |
| 20260903112404 | 21 | 183 | 8.0 | 24.1 | 0.03 | 0.15 | 0.03 | 86 | 1013.3 |
| 20260903111404 | 21 | 229 | 9.7 | 27.4 | 0.03 | 0.15 | 0.03 | 88 | 1013.6 |
| 20260903103403 | 20 | 244 | 6.4 | 17.7 | 0.00 | 0.15 | 0.00 | 90 | 1014.0 |
| 20260903102403 | 20 | 218 | 9.7 | 20.9 | 0.00 | 0.15 | 0.00 | 89 | 1014.1 |
| 20260903101405 | 20 | 197 | 9.7 | 17.7 | 0.00 | 0.15 | 0.00 | 90 | 1013.9 |
| 20260903100403 | 19 | 185 | 6.4 | 17.7 | 0.00 | 0.15 | 0.00 | 92 | 1013.9 |
| 20260903095404 | 18 | 265 | 6.4 | 17.7 | 0.00 | 0.15 | 0.00 | 92 | 1014.0 |
| 20260903094405 | 18 | 193 | 8.0 | 19.3 | 0.00 | 0.15 | 0.00 | 92 | 1014.0 |
| 20260903093404 | 18 | 23 | 6.4 | 14.5 | 0.00 | 0.15 | 0.00 | 91 | 1014.1 |
| 20260903091404 | 18 | 186 | 6.4 | 14.5 | 0.00 | 0.15 | 0.00 | 91 | 1013.9 |
| 20260903084404 | 18 | 178 | 4.8 | 14.5 | 0.00 | 0.15 | 0.00 | 92 | 1014.1 |
| 20260903083404 | 18 | 201 | 6.4 | 17.7 | 0.00 | 0.15 | 0.00 | 91 | 1014.2 |
| 20260903081404 | 18 | 238 | 6.4 | 19.3 | 0.00 | 0.15 | 0.00 | 88 | 1014.1 |
| 20260903075405 | 18 | 144 | 4.8 | 20.9 | 0.00 | 0.15 | 0.00 | 88 | 1014.0 |
| 20260903074404 | 18 | 168 | 8.0 | 25.7 | 0.00 | 0.15 | 0.00 | 88 | 1014.0 |
| 20260903073404 | 18 | 111 | 8.0 | 22.5 | 0.00 | 0.15 | 0.00 | 88 | 1014.0 |
| 20260903072405 | 18 | 184 | 9.7 | 29.0 | 0.00 | 0.15 | 0.00 | 88 | 1013.9 |
| 20260903071404 | 17 | 284 | 8.0 | 20.9 | 0.00 | 0.15 | 0.00 | 88 | 1014.0 |
| 20260903065404 | 17 | 143 | 8.0 | 19.3 | 0.00 | 0.15 | 0.00 | 88 | 1014.0 |
| 20260903064405 | 17 | 174 | 6.4 | 22.5 | 0.00 | 0.15 | 0.00 | 88 | 1013.8 |
| 20260903063404 | 17 | 146 | 8.0 | 14.5 | 0.00 | 0.15 | 0.00 | 88 | 1013.9 |
| 20260903062404 | 17 | 190 | 6.4 | 17.7 | 0.00 | 0.15 | 0.00 | 87 | 1014.2 |
| 20260903061404 | 17 | 230 | 8.0 | 24.1 | 0.00 | 0.15 | 0.00 | 86 | 1014.3 |
| 20260903055404 | 17 | 185 | 8.0 | 22.5 | 0.00 | 0.15 | 0.00 | 85 | 1014.3 |
| 20260903054404 | 17 | 202 | 8.0 | 16.1 | 0.00 | 0.15 | 0.00 | 85 | 1014.5 |
| 20260903053404 | 17 | 242 | 6.4 | 12.9 | 0.00 | 0.15 | 0.00 | 84 | 1014.5 |
| 20260903052404 | 17 | 202 | 8.0 | 19.3 | 0.00 | 0.15 | 0.00 | 84 | 1014.2 |
| 20260903051404 | 17 | 206 | 8.0 | 16.1 | 0.00 | 0.15 | 0.00 | 84 | 1014.2 |
| 20260903050405 | 17 | 197 | 6.4 | 17.7 | 0.00 | 0.15 | 0.00 | 84 | 1014.5 |
| 20260903044404 | 17 | 153 | 8.0 | 17.7 | 0.00 | 0.15 | 0.00 | 84 | 1014.4 |
| 20260903043404 | 17 | 162 | 8.0 | 25.7 | 0.00 | 0.15 | 0.00 | 84 | 1014.6 |
| 20260903042404 | 17 | 185 | 9.7 | 24.1 | 0.00 | 0.15 | 0.00 | 83 | 1014.5 |
| 20260903040404 | 17 | 222 | 9.7 | 20.9 | 0.00 | 0.15 | 0.00 | 84 | 1014.8 |
| 20260903035409 | 17 | 213 | 9.7 | 22.5 | 0.00 | 0.15 | 0.00 | 84 | 1015.0 |
| 20260903033409 | 17 | 194 | 8.0 | 22.5 | 0.00 | 0.15 | 0.00 | 85 | 1015.0 |
| 20260903032409 | 17 | 133 | 6.4 | 12.9 | 0.00 | 0.15 | 0.00 | 86 | 1015.2 |
| 20260903031410 | 16 | 171 | 8.0 | 24.1 | 0.00 | 0.15 | 0.00 | 87 | 1015.3 |
| 20260903030409 | 16 | 180 | 8.0 | 14.5 | 0.00 | 0.15 | 0.00 | 88 | 1015.2 |
| 20260903025409 | 16 | 166 | 8.0 | 20.9 | 0.00 | 0.15 | 0.00 | 90 | 1015.3 |
| 20260903024409 | 16 | 169 | 6.4 | 14.5 | 0.00 | 0.15 | 0.00 | 91 | 1015.4 |
| 20260903023409 | 16 | 167 | 6.4 | 16.1 | 0.00 | 0.15 | 0.00 | 92 | 1015.6 |
| 20260903021410 | 16 | 165 | 8.0 | 16.1 | 0.00 | 0.15 | 0.00 | 93 | 1015.8 |
| 20260903020409 | 16 | 157 | 8.0 | 14.5 | 0.00 | 0.15 | 0.00 | 93 | 1016.1 |
| 20260903015409 | 16 | 150 | 6.4 | 14.5 | 0.00 | 0.15 | 0.00 | 93 | 1016.2 |
| 20260903014409 | 16 | 180 | 6.4 | 14.5 | 0.00 | 0.15 | 0.00 | 93 | 1016.3 |
| 20260903013409 | 16 | 165 | 6.4 | 14.5 | 0.00 | 0.15 | 0.00 | 93 | 1016.4 |
| 20260903011409 | 16 | 165 | 6.4 | 14.5 | 0.00 | 0.15 | 0.00 | 92 | 1016.8 |
| 20260903010409 | 16 | 158 | 6.4 | 12.9 | 0.00 | 0.15 | 0.00 | 92 | 1016.9 |
| 20260903005409 | 16 | 150 | 6.4 | 14.5 | 0.00 | 0.15 | 0.00 | 92 | 1017.0 |
| 20260903004409 | 16 | 189 | 4.8 | 12.9 | 0.00 | 0.15 | 0.00 | 91 | 1017.1 |
| 20260903003410 | 16 | 173 | 6.4 | 12.9 | 0.00 | 0.15 | 0.00 | 90 | 1017.3 |
| 20260903002409 | 16 | 178 | 6.4 | 17.7 | 0.00 | 0.15 | 0.00 | 88 | 1017.5 |
| 20260903001409 | 17 | 173 | 4.8 | 14.5 | 0.00 | 0.15 | 0.00 | 85 | 1017.6 |
| 20260903000410 | 17 | 215 | 3.2 | 9.7 | 0.00 | 0.15 | 0.00 | 84 | 1017.6 |
| 20260902235409 | 17 | 275 | 6.4 | 17.7 | 0.00 | 0.15 | 0.00 | 83 | 1017.7 |
| 20260902233409 | 17 | 169 | 4.8 | 14.5 | 0.00 | 0.15 | 0.00 | 85 | 1017.8 |
| 20260902232409 | 17 | 152 | 8.0 | 27.4 | 0.00 | 0.15 | 0.00 | 86 | 1017.9 |
| 20260902231410 | 17 | 221 | 4.8 | 11.3 | 0.00 | 0.15 | 0.00 | 87 | 1018.0 |
| 20260902225409 | 17 | 177 | 3.2 | 9.7 | 0.00 | 0.15 | 0.00 | 87 | 1018.2 |
| 20260902224409 | 17 | 190 | 4.8 | 9.7 | 0.00 | 0.15 | 0.00 | 86 | 1018.3 |
| 20260902223409 | 17 | 188 | 3.2 | 6.4 | 0.00 | 0.15 | 0.00 | 86 | 1018.4 |
| 20260902222409 | 17 | 169 | 3.2 | 8.0 | 0.00 | 0.15 | 0.00 | 87 | 1018.4 |
| 20260902221409 | 17 | 183 | 4.8 | 14.5 | 0.00 | 0.15 | 0.00 | 87 | 1018.5 |
| 20260902220409 | 17 | 175 | 4.8 | 9.7 | 0.00 | 0.15 | 0.00 | 87 | 1018.5 |
| 20260902215409 | 17 | 163 | 4.8 | 9.7 | 0.00 | 0.15 | 0.15 | 87 | 1018.6 |
| 20260902214409 | 17 | 165 | 3.2 | 8.0 | 0.00 | 0.15 | 0.15 | 87 | 1018.6 |
| 20260902213410 | 17 | 196 | 3.2 | 8.0 | 0.00 | 0.15 | 0.15 | 88 | 1018.5 |
| 20260902212409 | 17 | 178 | 3.2 | 8.0 | 0.00 | 0.15 | 0.15 | 87 | 1018.6 |
| 20260902211410 | 17 | 170 | 3.2 | 11.3 | 0.00 | 0.15 | 0.15 | 87 | 1018.6 |
| 20260902210409 | 17 | 173 | 3.2 | 8.0 | 0.00 | 0.15 | 0.15 | 87 | 1018.7 |
| 20260902204410 | 17 | 190 | 3.2 | 8.0 | 0.00 | 0.15 | 0.15 | 87 | 1018.8 |
| 20260902203410 | 17 | 158 | 3.2 | 9.7 | 0.00 | 0.15 | 0.15 | 86 | 1018.9 |
| 20260902202409 | 17 | 160 | 3.2 | 8.0 | 0.00 | 0.15 | 0.15 | 86 | 1018.9 |
| 20260902201410 | 17 | 176 | 3.2 | 4.8 | 0.00 | 0.15 | 0.15 | 86 | 1019.0 |
| 20260902195409 | 17 | 174 | 1.6 | 4.8 | 0.00 | 0.15 | 0.15 | 86 | 1019.0 |
| 20260902194409 | 16 | 222 | 1.6 | 3.2 | 0.00 | 0.15 | 0.15 | 85 | 1019.1 |
| 20260902192409 | 16 | 187 | 1.6 | 3.2 | 0.00 | 0.15 | 0.15 | 85 | 1019.0 |
| 20260902191411 | 16 | 192 | 1.6 | 4.8 | 0.00 | 0.15 | 0.15 | 85 | 1019.2 |
| 20260902190409 | 16 | 219 | 0.0 | 1.6 | 0.00 | 0.15 | 0.15 | 85 | 1019.1 |
| 20260902185409 | 16 | 221 | 0.0 | 3.2 | 0.00 | 0.15 | 0.15 | 85 | 1019.1 |
| 20260902184409 | 17 | 221 | 1.6 | 4.8 | 0.00 | 0.15 | 0.15 | 83 | 1019.0 |
| 20260902183411 | 17 | 269 | 0.0 | 1.6 | 0.00 | 0.15 | 0.15 | 82 | 1018.9 |
| 20260902181410 | 18 | 269 | 0.0 | 1.6 | 0.00 | 0.15 | 0.15 | 78 | 1018.8 |
| 20260902175410 | 18 | 253 | 1.6 | 6.4 | 0.00 | 0.15 | 0.15 | 75 | 1018.8 |
| 20260902174410 | 19 | 316 | 4.8 | 9.7 | 0.00 | 0.15 | 0.15 | 73 | 1018.8 |
| 20260902171410 | 20 | 273 | 9.7 | 22.5 | 0.00 | 0.15 | 0.15 | 72 | 1018.8 |
| 20260902170409 | 20 | 253 | 3.2 | 9.7 | 0.00 | 0.15 | 0.15 | 74 | 1018.8 |
| 20260902165410 | 20 | 323 | 3.2 | 11.3 | 0.00 | 0.15 | 0.15 | 75 | 1018.7 |
| 20260902164410 | 20 | 298 | 3.2 | 6.4 | 0.00 | 0.15 | 0.15 | 76 | 1018.8 |
| 20260902163410 | 20 | 289 | 3.2 | 6.4 | 0.00 | 0.15 | 0.15 | 77 | 1018.9 |
| 20260902162409 | 20 | 271 | 3.2 | 6.4 | 0.00 | 0.15 | 0.15 | 77 | 1018.9 |
| 20260902161409 | 20 | 286 | 4.8 | 11.3 | 0.00 | 0.15 | 0.15 | 77 | 1018.8 |
| 20260902160409 | 20 | 277 | 4.8 | 9.7 | 0.00 | 0.15 | 0.15 | 76 | 1018.9 |
| 20260902154409 | 21 | 209 | 3.2 | 11.3 | 0.00 | 0.15 | 0.15 | 79 | 1019.0 |
| 20260902152409 | 20 | 184 | 3.2 | 6.4 | 0.00 | 0.15 | 0.15 | 84 | 1019.0 |
| 20260902151410 | 20 | 205 | 4.8 | 8.0 | 0.00 | 0.15 | 0.15 | 86 | 1019.0 |
| 20260902150409 | 19 | 162 | 3.2 | 8.0 | 0.00 | 0.15 | 0.15 | 87 | 1019.0 |
| 20260902145410 | 19 | 182 | 1.6 | 4.8 | 0.00 | 0.15 | 0.15 | 88 | 1019.2 |
| 20260902143409 | 19 | 236 | 1.6 | 9.7 | 0.00 | 0.15 | 0.15 | 85 | 1019.2 |
| 20260902142502 | 20 | 309 | 1.6 | 8.0 | 0.03 | 0.15 | 0.15 | 85 | 1019.1 |
| 20260902141401 | 18 | 153 | 1.6 | 4.8 | 0.05 | 0.15 | 0.15 | 92 | 1019.2 |
| 20260902135401 | 16 | 167 | 3.2 | 8.0 | 0.15 | 0.15 | 0.15 | 92 | 1019.3 |
| 20260902134402 | 16 | 180 | 3.2 | 4.8 | 0.15 | 0.15 | 0.15 | 92 | 1019.3 |
| 20260902133401 | 16 | 285 | 0.0 | 1.6 | 0.15 | 0.15 | 0.15 | 91 | 1019.5 |
| 20260902132401 | 16 | 327 | 4.8 | 12.9 | 0.13 | 0.13 | 0.13 | 87 | 1019.6 |
| 20260902131401 | 18 | 310 | 14.5 | 25.7 | 0.08 | 0.08 | 0.08 | 81 | 1019.7 |